Regional Weather Roundup
Issued by NWS

Home | Current Version | Previous Version | Graphics & Text | Print | Product List | Glossary On
Versions: 1 2 3 4 5 6 7 8 9 10 11 12 13 14 15 16 17 18 19 20 21 22 23 24 25 26 27 28 29 30 31 32 33 34 35 36 37 38 39 40 41 42 43 44 45 46 47 48 49 50
000
ASUS43 KBIS 300902
RWRND

NORTH DAKOTA REGIONAL WEATHER ROUNDUP
NATIONAL WEATHER SERVICE BISMARCK ND
400 AM CDT TUE AUG 30 2016

NOTE: "FAIR" INDICATES FEW OR NO CLOUDS BELOW 12,000 FEET WITH NO
SIGNIFICANT WEATHER AND/OR OBSTRUCTIONS TO VISIBILITY.


NDZ001>003-009>011-017-301000-
NORTHWEST NORTH DAKOTA

CITY           SKY/WX    TMP DP  RH WIND       PRES   REMARKS
WILLISTON      CLEAR     53  42  66 CALM      30.21S
MINOT          CLEAR     54  47  77 S3        30.23S
MINOT AFB      CLEAR     49  44  83 S1        30.22S
$$

NDZ018>021-031>035-040>046-301000-
SOUTHWEST NORTH DAKOTA

CITY           SKY/WX    TMP DP  RH WIND       PRES   REMARKS
BISMARCK       CLEAR     52  48  86 NE3       30.26R
DICKINSON      CLEAR     53  46  77 SE10      30.24S
GARRISON         N/A     49  45  86 E5        30.25R
HETTINGER ARPT CLEAR     59  50  72 SE7       30.27S
$$

NDZ004>008-012>016-024-026-027-054-301000-
NORTHEAST NORTH DAKOTA

CITY           SKY/WX    TMP DP  RH WIND       PRES   REMARKS
GRAND FORKS    CLEAR     49  46  90 CALM      30.23R
GRND FRKS AFB  CLEAR     51  48  90 SW3       30.23R
DEVILS LAKE    CLEAR     56  50  80 CALM      30.26R
$$

NDZ022-023-025-028>030-036>039-047>053-301000-
SOUTHEAST NORTH DAKOTA

CITY           SKY/WX    TMP DP  RH WIND       PRES   REMARKS
FARGO          CLEAR     53  49  86 SW3       30.23R
JAMESTOWN      CLEAR     53  49  86 CALM      30.24S
$$





USA.gov is the U.S. government's official web portal to all federal, state and local government web resources and services.